Location: Kawakawa
(35.3830°S, 174.0670°E)
Time: 07:16:38
(UTC+13:00)

Altair - Pass Details

Date: 13 December 2019
Orbit: 1502 x 1682 km, 47.2° (Epoch: 28 January)

Event Time Altitude Azimuth Distance (km) Brightness Sun altitude
Rises 14:09:54 0° 242° (WSW) 4,885 10.2 73.3°
Reaches altitude 10° 14:13:12 10° 236° (WSW) 3,918 9.8 72.8°
Maximum altitude 14:23:00 51° 161° (SSE) 2,040 8.8 71.2°
Drops below altitude 10° 14:32:52 10° 87° (E) 3,951 9.6 69.6°
Sets 14:36:12 0° 81° (E) 4,929 10.0 69.0°
